Regional Weather Roundup
Issued by NWS Wakefield, VA

Home | Current Version | Previous Version | Graphics & Text | Print | Product List | Glossary On
Versions: 1 2 3 4 5 6 7 8 9 10 11 12 13 14 15 16 17 18 19 20 21 22 23 24 25 26 27 28 29 30 31 32 33 34 35 36 37 38 39 40 41 42 43 44 45 46 47 48 49 50
194
ASUS41 KAKQ 281115
RWRAKQ

REGIONAL WEATHER ROUNDUP
NATIONAL WEATHER SERVICE WAKEFIELD VA
700 AM EDT TUE MAR 28 2017

Note: "fair" indicates few or no clouds below 12,000 feet with no
significant weather and/or obstructions to visibility. * = Denotes
station may not report precipitation (e.g., rain,snow,etc.),
thunder or fog.

VAZ042-051-052>054-056-281200-
NORTHERN VIRGINIA

CITY           SKY/WX    TMP DP  RH WIND       PRES   REMARKS
WASH NATIONAL  MOCLDY    61  57  87 S3        29.85R
DULLES         MOCLDY    55  54  96 CALM      29.84S
FORT BELVOIR   CLOUDY    62  56  81 CALM      29.85R
QUANTICO       MOCLDY    59  56  89 SW10      29.86R
FREDERICKSBRG* CLOUDY    64  59  83 S9        29.85S
STAFFORD*      CLOUDY    62  59  90 S5        29.89S
WARRENTON      NOT AVBL
CULPEPER*      MOCLDY    63  59  88 S5        29.86R
MANASSAS*        N/A    N/A N/A N/A CALM      29.85R
LEESBURG*      MOCLDY    55  55 100 NE3       29.85S FOG
WINCHESTER     CLOUDY    52  50  93 CALM      29.84S FOG
FRONT ROYAL*   CLOUDY    55  55 100 CALM      29.85R
LURAY*         RAIN      55  55 100 CALM      29.86R
$$

VAZ048-049-060>072-079>083-281200-
CENTRAL AND SOUTH CENTRAL VIRGINIA

CITY           SKY/WX    TMP DP  RH WIND       PRES   REMARKS
RICHMOND       CLOUDY    61  55  81 S8        29.88S
CHESTERFIELD*  PTSUNNY   61  43  51 S6        29.90S
PETERSBURG*    CLOUDY    57  54  87 S3        29.91R
HANOVER        CLOUDY    64  54  69 S7        29.89S
TAPPAHANNOCK*  CLOUDY    62  50  64 S5        29.89S
QUINTON*       FAIR      62  56  80 S5        29.88S
CHARLOTTSVILLE HVY RAIN  62  60  93 S7        29.88R FOG
GORDONSVILLE*  CLOUDY    60  59  97 SW8       29.87R
ORANGE*        CLOUDY    61  57  88 SW9       29.88R
LOUISA*        LGT RAIN  64  61  88 SW7       29.87R
BUMPASS*       CLOUDY    63  58  85 SW10G16   29.87R
FARMVILLE*     RAIN      62  61  98 S8        29.89R
CREWE*         CLOUDY    60  60 100 SW5       29.91R
FORT PICKETT*  CLOUDY    60  56  88 SW9G18    29.92R
CHASE CITY*    CLOUDY    60  58  94 CALM      29.92F
CLARKSVILLE*   CLOUDY    61  61 100 S6        29.92R
SOUTH HILL*    CLOUDY    59  58  96 SW5       29.98R
LAWRENCEVILLE* CLOUDY    59  56  91 CALM      29.92R
EMPORIA*       CLOUDY    55  54  94 CALM      29.93S
$$

VAZ088>098-281200-
SOUTHEAST VIRGINIA

CITY           SKY/WX    TMP DP  RH WIND       PRES   REMARKS
NORFOLK        PTCLDY    61  55  81 SW12      29.92S
VIRGINIA BEACH MOCLDY    59  53  80 S9        29.93S
NORFOLK NAVAL  MOCLDY    62  54  74 S8        29.94R
WEST POINT*    CLEAR     61  54  75 S3        29.91S
SALUDA*        PTSUNNY   61  55  81 S10       29.89S
NEWPORT NEWS   PTCLDY    61  54  77 S9        29.92R
LANGLEY AFB    PTCLDY    61  56  82 S10       29.91S
FORT EUSTIS    CLEAR     59  54  83 S5        29.89S
WILLIAMSBURG*  CLEAR     61  55  82 CALM      29.92S
HR EXEC AP*    FAIR      59  54  82 SW6       29.92S
FRANKLIN*      CLEAR     57  54  88 S6        29.93S
US460-WAKEFLD  CLOUDY    59  55  87 VRB5      29.91S
$$

VAZ020-022-025-037-045-281200-
WEST CENTRAL AND SOUTHWEST VIRGINIA

CITY           SKY/WX    TMP DP  RH WIND       PRES   REMARKS
STAUNTON*      RAIN      58  56  92 S9        29.91R
WAYNESBORO*    CLOUDY    58  58 100 S6        29.90R
HOT SPRINGS VA LGT RAIN  50  50 100 CALM      29.93S
LYNCHBURG      LGT RAIN  57  57 100 S5        29.89F
DANVILLE       LGT RAIN  59  59 100 CALM      29.91S
SOUTH BOSTON*  CLOUDY    60  58  95 S3        29.92S
MARTINSVILLE   CLOUDY    57  56  97 CALM      29.93R
ROANOKE        LGT RAIN  58  57  97 CALM      29.91R
BLACKSBURG     CLOUDY    54  54  99 CALM      29.94R
DUBLIN*        CLOUDY    55  54  99 CALM      29.93R
MARION*        MOCLDY    54  53  96 CALM      29.95R FOG
HILLSVILLE*    CLOUDY    54  54 100 S6        29.91S
RICHLANDS*     LGT RAIN  53  53  99 W8        29.92R
WISE*          CLOUDY    54  54 100 SW10      29.93R
ABINGDON*      CLOUDY    55  55 100 CALM      29.92R FOG
$$

MDZ021>025-VAZ099-100-281200-
SOUTHERN MARYLAND AND THE DELMARVA PENINSULA

CITY           SKY/WX    TMP DP  RH WIND       PRES   REMARKS
PATUXENT RIVER CLOUDY    63  57  81 S8        29.87R
BAY BRIDGE APT CLOUDY    57  54  88 SE6       29.86S
LEONARDTOWN    CLOUDY    63  54  72 SW6       29.88S
DOVER          CLOUDY    60  60 100 S3        29.86S
GEORGETOWN     CLOUDY    60  54  80 SW7       29.89R
EASTON         MOCLDY    61  54  77 S6        29.90S
CAMBRIDGE      MOCLDY    57  54  88 SE7       29.88R
SALISBURY      CLOUDY    60  55  83 S8        29.89S
OCEAN CITY     CLOUDY    53  50  89 S9        29.91S
WALLOPS ISLAND MOCLDY    52  51  97 S10       29.92S
ACCOMACK*      CLOUDY    57  54  88 S7        29.92R
$$

NCZ012>017-030>032-281200-
NORTH CENTRAL AND EASTERN NORTH CAROLINA

CITY           SKY/WX    TMP DP  RH WIND       PRES   REMARKS
ROANOKE RAPIDS PTSUNNY   61  55  82 S7        29.93R
RALEIGH        CLOUDY    64  55  72 SW13      29.95R
ELIZABETH CITY PTCLDY    59  55  87 S7        29.96S
AHOSKIE*         N/A     60  56  87 S3        29.94R
EDENTON*       PTCLDY    59  56  89 CALM      29.96S
CURRITUCK*     CLEAR     60  57  89 S3        29.96S
KILL DEVIL HLS NOT AVBL
MANTEO         PTCLDY    59  56  92 SW6       29.98S
CAPE HATTERAS  CLEAR     66  59  78 SW8       29.99S HAZE
TARBORO*       NOT AVBL
GOLDSBORO      MOCLDY    62  62 100 SW9       29.94S
WASHINGTON     PTCLDY    60  57  87 S5        29.96S
GREENVILLE     MOCLDY    63  59  88 SW7       29.98R
NEW BERN       MOCLDY    61  58  90 S5        29.98S
WILMINGTON     CLEAR     62  60  93 SW6       29.98S
$$

VAZ048-281200-
ELSEWHERE

CITY           SKY/WX    TMP DP  RH WIND       PRES   REMARKS
HARRISBURG PA  CLOUDY    51  50  96 NW5       29.85F FOG
BALTIMORE      CLOUDY    54  54 100 E6        29.86R
ANNAPOLIS      MOCLDY    54  52  93 SE5       29.86R
ANDREWS AFB    MOCLDY    63  56  79 S6        29.84R
PHILADELPHIA   CLOUDY    50  49  96 NE9       29.89F FOG
HENDERSON NC   LGT RAIN  58  55  89 SW10      29.93S
GREENSBORO     CLOUDY    59  58  96 SW9       29.90F
ROCKY MOUNT    CLOUDY    61  58  90 S9        29.94S
$$

VAZ100-281200-
MARINE

STATION/POSITION TIME  TEMP    WIND        PRES    WAVE   SWELL
                       AIR SEA DIR/SP/G            HT/PER HT/PER
                 (UTC) (F)     (DEG/KT/KT) (MB)    (FT/S) (FT/S)
CAPE MAY NJ      1042   54 45  150/  9/ 12 1011.5S
LEWES DE         1042   63 45  210/  7/ 11 1011.7R
OCEAN-CITY-INLET 1042   47 46  220/ 10/ 11 1013.1S
WACHAPREAGUE VA  1042   55 55  210/  6/  8 1012.9R
THOMAS POINT MD  1100   58 46  160/ 14/ 14   N/A
GOOSES REEF MD   1100   53 47  170/ 12/ 14 1011.8    1/ 2
COVE POINT MD    1042   52     200/ 12/ 14 1011.9R
SOLOMONS ISLAND  1042   56 47  130/  4/  5   N/A
BISHOPS HEAD MD  1042   57 53  180/ 12/ 13 1012.3R
PINEY POINT MD   1042          190/  7/  8   N/A
POTOMAC MD       1100   55 48  190/  6/  8 1011.1    1
CAMBRIDGE MD     1042   59 47  170/  6/ 10 1010.7F
LEWISETTA VA     1042   62 52  210/  8/  9 1011.4R
RAPPAHANNOCK LGT 1042          180/ 16/ 17 1013.3R
STINGRAY PT      1050   52     190/ 10/ 10 1012.5S
YORK RVR RNG VA  1042   59     180/  5/  6 1012.2R
YORKTOWN VA      1042   62 51  220/ 11/ 13 1012.3R
JAMESTOWN VA     1100   61 56  200/  8/ 12   N/A     0
DOMINION TERM VA 1042   58     200/  7/  9 1013.2R
KIPTOPEKE VA     1042      50  170/  8/  9   N/A
CHES BAY BRIDGE  1042   61 49  210/ 11/ 15 1013.1R
CAPE HENRY VA    1042   62     200/ 10/ 14   N/A
WILLOUBY STN VA  1042   62     200/ 13/ 15 1014.0R
S CRANEY ISL VA  1042   60     200/  8/ 10 1013.1S
CAPE HENRY BUOY  1042      50                N/A     3/ 9   2/11
CAPE CHARLES BUO 1051      48                N/A     3/ 9   2/11
OFFSHORE WE BUOY 1051      51                N/A     4/10   2/17
64NM E OF VA BCH 1050   56 49  220/ 12/ 12 1014.7R   4/ 9   3/ 9
DUCK PIER NC     1042   61 48  200/ 11/ 13 1014.2S
44100 DUCK FRF   1035      51                N/A     4/10   2/11
44056 DUCK FRF   1030      50                N/A     3/ 8   2/11
OREGON INLET NC  1042   61 58  200/  9/ 10 1015.2S
HATTERAS NC      1042   65 61  220/  5/  8 1015.5R
DIAMOND SHLS NC  1050   71 74  240/ 16/ 19 1015.7R   5/10   3/10
CAPE LOOKOUT NC  1100   66     200/  5/  6 1015.4S
$$




USA.gov is the U.S. government's official web portal to all federal, state and local government web resources and services.